Flag for Spain Weather past 2 weeks in Madrid, Spain

Now
39 °F

Passing clouds.


Feels Like: 37 °F
Forecast: 36 / 56 °F
Wind: 3 mph from North

Location: Madrid / Cuatro Vientos

Current Time: Dec 21, 2014 at 7:53:04 AM

Latest Report: Dec 21, 2014 at 7:00 AM


Visibility: N/A

Pressure: 30.48 "Hg

Humidity: 93%

Dew point: 37 °F

Location of MadridLocation

Historic Weather in Madrid — Graph

°F

Madrid temperature yesterday

Maximum temperature yesterday: 63 °F (at 4:00 PM)
Minimum temperature yesterday: 32 °F (at 7:00 AM)
Average temperature yesterday: 49 °F

Past Weeks' High & Low Weather Summary

 TemperatureHumidityPressure
High63 °F (Dec 20, 4:00 PM)100% (Dec 6, 8:30 AM)30.54 "Hg (Dec 6, 8:30 AM)
Low30 °F (Dec 6, 8:30 AM)32% (Dec 20, 4:00 PM)29.83 "Hg (Dec 13, 3:00 PM)
Average47 °F73%30.26 "Hg
* Reported Dec 6 7:00 AM — Dec 21 7:00 AM, Madrid, Weather by CustomWeather, © 2014

Note: Actual official high and low records may vary slightly from our data, if they occured in-between our weather recording intervals... More about our weather records

Advertising

Madrid weather history for previous 24 hours

 ConditionsComfort  
Time TempWeatherWind HumidityBarometerVisibility
7:00 AM
Dec 21
39 °FPassing clouds.3 mph93%30.48 "HgN/A
8:00 PM
Dec 20
48 °FClear.2 mph76%30.51 "Hg10 mi
7:30 PM46 °FClear.No wind76%30.48 "Hg10 mi
7:00 PM46 °FClear.No wind71%30.48 "Hg10 mi
6:30 PM48 °FClear.No wind71%30.48 "Hg10 mi
6:00 PM52 °FClear.No wind54%30.48 "Hg10 mi
5:30 PM59 °FSunny.No wind42%30.48 "Hg10 mi
5:00 PM63 °FSunny.No wind37%30.48 "Hg10 mi
4:30 PM63 °FSunny.No wind34%30.48 "Hg10 mi
4:00 PM63 °FSunny.No wind32%30.48 "Hg10 mi
3:30 PM61 °FSunny.1 mph36%30.48 "Hg10 mi
3:00 PM59 °FSunny.No wind39%30.48 "Hg10 mi
2:30 PM61 °FSunny.No wind34%30.48 "Hg10 mi
2:00 PM59 °FSunny.No wind42%30.48 "Hg10 mi
1:30 PM57 °FSunny.No wind39%30.51 "Hg10 mi
1:00 PM57 °FSunny.No wind39%30.51 "Hg10 mi
12:30 PM55 °FSunny.No wind41%30.54 "Hg10 mi
12:00 PM50 °FSunny.1 mph58%30.54 "Hg10 mi
11:30 AM48 °FSunny.No wind66%30.54 "Hg10 mi
11:00 AM48 °FSunny.No wind66%30.54 "Hg10 mi
10:30 AM45 °FSunny.No wind81%30.51 "Hg10 mi
10:00 AM43 °FSunny.No wind100%30.51 "Hg10 mi
9:30 AM37 °FSunny.No wind100%30.51 "Hg10 mi
9:00 AM36 °FSunny.No wind100%30.51 "Hg10 mi
8:30 AM32 °FFog.No wind100%30.51 "HgN/A
8:00 AM32 °FClear.No wind100%30.48 "Hg10 mi
7:30 AM32 °FClear.No wind100%30.48 "Hg10 mi
7:00 AM32 °FIce fog.No wind100%30.48 "Hg3 mi
Weather by CustomWeather, © 2014

See weather overviewHow to use our weather pages